Weather History for Ciudad Obregon, Mexico

Change the Weather History Date:

Thursday, October 27, 2011

  Actual Average Record
Temperature  
Mean Temperature 75 °F -  
Max Temperature 90 °F 88 °F 100 °F (2008)
Min Temperature 60 °F 63 °F 58 °F (2013)
Cooling Degree Days 10    
Growing Degree Days 25 (Base 50)    
Moisture  
Dew Point 44 °F    
Average Humidity 34    
Maximum Humidity 73    
Minimum Humidity 10    
Precipitation  
Precipitation 0.00 in - - ()
Sea Level Pressure  
Sea Level Pressure 29.81 in    
Wind  
Wind Speed 8 mph ()    
Max Wind Speed 29 mph    
Max Gust Speed -    
Visibility 10.0 miles    
Events      
Averages and records for this station are not official NWS values.
T = Trace of Precipitation, MM = Missing Value Source: Averaged Metar Reports

Daily Weather History Graph

Daily Weather History Graph

Search for Another Location

Airport:

Trip Planner

Search our weather history database for the weather conditions in past years. The results will help you decide how hot, cold, wet, or windy it might be!

Date:

Astronomy

Oct. 27, 2011 Rise Set
Actual Time 6:26 AM MST 5:39 PM MST
Civil Twilight 6:02 AM MST 6:03 PM MST
Nautical Twilight 5:35 AM MST 6:30 PM MST
Astronomical Twilight 5:07 AM MST 6:58 PM MST
Moon 7:22 AM MST (10/27) 6:24 PM MST (10/27)
Length of Visible Light 12h 01m
Length of Day
11h 13m
New Moon, 1% of the Moon is Illuminated
Oct 27
New Moon
Nov 2
First Quarter
Nov 10
Full
Nov 18
Last Quarter
Nov 24
New

Hourly Weather History & Observations

Time (MST) Temp. Dew Point Humidity Pressure Visibility Wind Dir Wind Speed Gust Speed Precip Events Conditions
3:48 AM 64.4 °F 55.4 °F 73% 29.78 in 10.0 mi WNW 5.8 mph - N/A   Clear
4:44 AM 64.4 °F 53.6 °F 68% 29.79 in 10.0 mi WNW 6.9 mph - N/A   Clear
5:46 AM 62.6 °F 53.6 °F 72% 29.80 in 10.0 mi NW 5.8 mph - N/A   Clear
6:41 AM 64.4 °F 53.6 °F 68% 29.81 in 12.0 mi NW 5.8 mph - N/A   Clear
7:42 AM 69.8 °F 53.6 °F 56% 29.83 in 10.0 mi NW 6.9 mph - N/A   Clear
7:50 AM 65 °F 51 °F 51% 29.89 in 12 mi NW 8.9 mph - -  
8:43 AM 73.4 °F 53.6 °F 50% 29.84 in 10.0 mi NW 10.4 mph - N/A   Partly Cloudy
9:43 AM 78.8 °F 50.0 °F 36% 29.84 in 10.0 mi NNW 11.5 mph - N/A   Partly Cloudy
10:40 AM 82.4 °F 42.8 °F 25% 29.84 in 10.0 mi North 8.1 mph - N/A   Partly Cloudy
10:50 AM 84 °F 47 °F 18% 29.90 in 12 mi NNW 17.9 mph - -   Clear
11:43 AM 84.2 °F 35.6 °F 18% 29.82 in 10.0 mi West 3.5 mph - N/A   Partly Cloudy
12:44 PM 86.0 °F 28.4 °F 12% 29.79 in 10.0 mi WNW 3.5 mph - N/A   Clear
1:47 PM 87.8 °F 28.4 °F 12% 29.77 in 10.0 mi SSW 4.6 mph - N/A   Clear
1:50 PM 89 °F 40 °F 10% 29.82 in 19 mi NNW 13.4 mph - -  
2:44 PM 89.6 °F 28.4 °F 11% 29.76 in 10.0 mi NW 3.5 mph - N/A   Clear
3:43 PM 87.8 °F 32.0 °F 14% 29.76 in 8.0 mi West 12.7 mph - N/A   Clear
4:42 PM 82.4 °F 39.2 °F 21% 29.78 in 8.0 mi West 16.1 mph - N/A   Clear
4:50 PM 82 °F 46 °F 18% 29.84 in 9 mi West 29.1 mph - -  
4:59 PM 80.6 °F 39.2 °F 23% 29.79 in 3.0 mi West 12.7 mph - N/A   Widespread Dust
5:44 PM 77.0 °F 42.8 °F 29% 29.80 in 6.0 mi West 10.4 mph - N/A   Clear
6:45 PM 75.2 °F 44.6 °F 34% 29.82 in 10.0 mi West 6.9 mph - N/A   Clear
7:43 PM 71.6 °F 44.6 °F 38% 29.84 in 10.0 mi West 4.6 mph - N/A   Clear